Zurück zum Katalog

N-1 R/B

AktivLEO
NORAD 10675·ROCKET BODY·🇯🇵 Japan

Gestartet Feb 16, 1978 von Tanegashima Space Center

Loading…

Nächste Überflüge (nächste 24 Stunden)

TLE

AktuellSource: Space-Track

Epoche: Sep 14, 2026, 07:48 UTC

1 10675U 78018B   26257.32535554  .00000041  00000-0  14505-3 0  9990
2 10675  69.3621  19.8690 0161688 350.4564  28.3481 13.44897665384002

Verfolge N-1 R/B in Echtzeit mit AllMySat

Download on the App Store